Location: Unspecified
(46.0725°N, 13.7344°E)
Time: 07:16:28
(UTC+02:00)

Cosmos 2058 - Visible Passes

Search period start: 23 October 2019 00:00
Search period end: 01 November 2019 23:00
Orbit: 563 x 583 km, 82.5° (Epoch: 22 October)

Date Brightness Start Highest point End Pass type
(mag) Time Alt. Az. Time Alt. Az. Time Alt. Az.
23 Oct 2.8 19:36:29 10° N 19:40:41 64° ENE 19:44:50 10° SSE visible
23 Oct 6.1 21:15:20 10° WNW 21:17:01 12° W 21:18:41 10° WSW visible
24 Oct 2.8 19:39:27 10° N 19:43:41 84° E 19:47:52 10° S visible
25 Oct 3.1 19:42:26 10° NNW 19:46:39 75° W 19:50:49 10° S visible
26 Oct 3.6 19:45:28 10° NNW 19:49:36 56° W 19:53:42 10° S visible
27 Oct 4.2 18:48:32 10° NNW 18:52:32 43° W 18:56:29 10° SSW visible
28 Oct 4.7 18:51:41 10° NNW 18:55:27 33° W 18:59:12 10° SSW visible
29 Oct 6.7 05:44:49 10° E 05:45:22 10° E 05:45:55 10° ENE visible
29 Oct 5.2 18:54:52 10° NNW 18:58:21 26° W 19:01:49 10° SW visible
30 Oct 6.3 05:46:09 10° ESE 05:48:12 13° E 05:50:16 10° NE visible
30 Oct 3.5 17:20:39 10° N 17:24:35 37° ENE 17:28:27 10° SE visible
30 Oct 5.7 18:58:09 10° NW 19:01:14 20° W 19:04:18 10° SW visible
31 Oct 6.1 05:48:18 10° SE 05:51:03 17° E 05:53:50 10° NE visible
31 Oct 3.2 17:23:31 10° N 17:27:36 48° ENE 17:31:38 10° SSE visible
31 Oct 6.1 19:01:34 10° NW 19:04:06 16° W 19:06:37 10° WSW visible
01 Nov 5.8 05:50:42 10° SE 05:53:56 22° E 05:57:11 10° NE visible
01 Nov 2.9 17:26:25 10° N 17:30:37 63° E 17:34:44 10° SSE visible
01 Nov 6.4 19:05:16 10° WNW 19:06:57 12° W 19:08:36 10° WSW visible
